OKEAN 1

Satellite information

Favourite Embed

Satellite Type and Status

PAYLOADIN ORBIT

Key statistics

Satellite OKEAN 1 at a glance.

Uptime

13511

Days in orbit

Revolutions

≈ 15.3

Per day

Orbit

LEO

Low Earth Orbit

Inclination

82.5

Latest

Satellite identification and parameters

Extended collection of information and parameters for OKEAN 1.

Object identification

Identified? True

Debris? False

Object name: OKEAN 1

International designator: 1988-056A

Object number (NORAD): 19274

Object ID (CCSDS): 19274

Country: COMMONWEALTH OF INDEPENDENT STATES (CIS)

Current information (Y/N): Y

RCS size: LARGE

Orbital parameters

Period: 94.36 minutes

Inclination: 82.4725 deg

SMA: 6865.692 km

Apoapsis: 496.85 km

Periapsis: 478.265 km

RAAN: 156.525 deg

Eccentricy: 0.0013535

Argument of periapsis: 348.2113 deg

Mean anomaly: 11.8806 deg

Mean motion: 15.26076349 rev/day

Mean motion (dot): 0.00006328 rev/day2

B* drag term: 0.00024375 1/REarth

Two-line elements (TLE)

Creation date: July 2, 2025, 2:08 a.m.

Reference frame: TEME

Reference center: EARTH

Epoch: July 1, 2025, 10:01 p.m. UTC

TLE line 0: 0 OKEAN 1

TLE line 1: 1 19274U 88056A 25182.91774589 .00006328 00000-0 24375-3 0 9991

TLE line 2: 2 19274 82.4725 156.5250 0013535 348.2113 11.8806 15.26076349996760

Live tracking on map

Real-time ground track for satellite OKEAN 1.

In-orbit conjunctions

There are no conjunctions computed for OKEAN 1, at the moment. Check back to stay up to date, as we update our databases every day.

Go to all conjunctions

Associated space launch

Ocean observation satellite

OKEAN 1 was lifted into orbit during the mission ‘Tsiklon-3 | Okean-O1 3’, on board a Tsiklon-3 space rocket.

The launch took place on July 5, 1988, 9:45 a.m. from 32/1.

For more information about the launch, click the button.

Launch to space Tsiklon-3 | Okean-O1 3
Tsiklon-3 | Okean-O1 3

Agency: N/A

Status: Launch Successful

Launch date: July 5, 1988, 9:45 a.m. UTC

Rocket: Tsiklon-3

Launch pad: 32/1

Location: Plesetsk Cosmodrome, Russian Federation

...

Latest news about this satellite

There are no fresh news available about this satellite. Check back as we update our databases every day.


Newsletter sign-up

Weekly statistics, charts and insights to help you stay on top of the space industry.